Flag for Belgium Weather past 2 weeks in Kortrijk, Belgium

45 °F

Partly sunny.

Feels Like: 40 °F
Forecast: 36 / 50 °F
Wind: 9 mph from North

Location: Lille Airport

Current Time: Oct 13, 2015 at 9:49:44 AM

Latest Report: Oct 13, 2015 at 9:30 AM

Visibility: 6 mi

Pressure: 30.04 "Hg

Humidity: 76%

Dew point: 37 °F

Location of KortrijkLocation

Historic Weather in Kortrijk — Graph


Kortrijk temperature yesterday

Maximum temperature yesterday: 57 °F (at 3:00 PM)
Minimum temperature yesterday: 39 °F (at 6:30 AM)
Average temperature yesterday: 47 °F

Past Weeks' High & Low Weather Summary

High70 °F (Oct 6, 4:30 PM)100% (Oct 3, 7:00 AM)30.60 "Hg (Oct 3, 7:00 AM)
Low39 °F (Oct 12, 6:30 AM)40% (Sep 30, 4:00 PM)29.50 "Hg (Oct 6, 12:00 PM)
Average54 °F78%30.09 "Hg
* Reported Sep 28 8:00 AM — Oct 13 8:30 AM, Kortrijk, Weather by CustomWeather, © 2015

Note: Actual official high and low records may vary slightly from our data, if they occured in-between our weather recording intervals... More about our weather records


Kortrijk weather history for previous 24 hours

Time TempWeatherWind HumidityBarometerVisibility
8:30 AM
Tue, Oct 13
43 °FClear.8 mph81%30.04 "Hg4 mi
8:00 AM43 °FClear.6 mph81%30.01 "Hg4 mi
7:30 AM43 °FClear.7 mph81%30.01 "Hg4 mi
7:00 AM43 °FClear.10 mph87%30.01 "Hg4 mi
6:30 AM45 °FClear.8 mph87%30.01 "Hg4 mi
5:30 AM45 °FPartly cloudy.6 mph93%29.98 "Hg4 mi
5:00 AM45 °FFog.6 mph93%29.98 "Hg3 mi
4:30 AM45 °FFog.6 mph93%29.98 "Hg3 mi
4:00 AM45 °FFog.5 mph93%30.01 "Hg3 mi
3:30 AM45 °FFog.3 mph93%30.01 "Hg3 mi
3:00 AM45 °FFog.5 mph93%30.01 "Hg3 mi
2:30 AM45 °FFog.5 mph93%30.01 "Hg3 mi
2:00 AM45 °FFog.5 mph87%30.01 "Hg3 mi
1:30 AM45 °FFog.2 mph93%30.01 "Hg3 mi
1:00 AM45 °FFog.6 mph93%30.04 "Hg3 mi
12:30 AM43 °FFog.5 mph93%30.04 "Hg3 mi
12:00 AM43 °FFog.7 mph87%30.04 "Hg3 mi
11:00 PM
Mon, Oct 12
43 °FClear.3 mph87%30.04 "Hg4 mi
10:30 PM43 °FClear.2 mph87%30.04 "Hg4 mi
10:00 PM45 °FClear.3 mph81%30.04 "Hg5 mi
9:30 PM46 °FClear.5 mph82%30.04 "Hg6 mi
9:00 PM46 °FClear.5 mph82%30.04 "Hg10 mi
8:30 PM48 °FPassing clouds.8 mph76%30.04 "HgN/A
8:00 PM48 °FSunny.8 mph76%30.04 "Hg10 mi
7:30 PM50 °FPassing clouds.9 mph71%30.04 "HgN/A
7:00 PM52 °FSunny.12 mph67%30.04 "Hg10 mi
6:30 PM54 °FSunny.8 mph63%30.04 "Hg10 mi
6:00 PM55 °FPassing clouds.8 mph55%30.01 "HgN/A
5:30 PM55 °FPassing clouds.9 mph55%30.01 "HgN/A
5:00 PM57 °FPassing clouds.8 mph51%30.01 "HgN/A
4:30 PM57 °FPassing clouds.7 mph51%30.01 "HgN/A
4:00 PM57 °FPassing clouds.6 mph51%30.01 "HgN/A
3:30 PM57 °FPassing clouds.5 mph51%30.01 "HgN/A
3:00 PM57 °FSunny.3 mph51%30.01 "Hg10 mi
2:30 PM55 °FPassing clouds.3 mph55%30.04 "HgN/A
2:00 PM54 °FSunny.3 mph58%30.04 "Hg10 mi
1:30 PM54 °FSunny.3 mph58%30.04 "Hg10 mi
1:00 PM52 °FPassing clouds.5 mph67%30.04 "HgN/A
12:30 PM52 °FPassing clouds.3 mph67%30.07 "HgN/A
12:00 PM50 °FClear.2 mph71%30.04 "Hg6 mi
11:30 AM48 °FSunny.3 mph76%30.04 "Hg10 mi
11:00 AM46 °FPassing clouds.5 mph76%30.04 "HgN/A
10:30 AM45 °FClear.5 mph81%30.04 "Hg5 mi
10:00 AM43 °FClear.5 mph87%30.04 "Hg5 mi
9:30 AM41 °FClear.6 mph87%30.04 "Hg4 mi
9:00 AM41 °FClear.2 mph87%30.04 "Hg5 mi
Weather by CustomWeather, © 2015

See weather overviewHow to use our weather pages